Bernard A — TCWN3 — position and weather

sailwx.info

Track history (hours):
 
Tides and Currents Weather Stations Pressure Air Temp Water Temp Dewpoint Dewpoint Depression Visibility Wind Speed Wind Dir Waves Ship Positions

Bernard A

Last reported at 2014-Oct-23 21:13 UTC. Time now 2014-Oct-24 18:51 UTC.
Position N 36°58' E 013°33'.

Length 184 m; draft 8.1 m.

Type: Ship (hazmat cat A). MMSI: 271040008.

Date/timePositionNaut miles runAvg speedWind from/ knotsBaromVisibWave heightAir tempDewpointWater temp
2014-Oct-23 21:13N 36°58' E 013°33'22313.4
2014-Oct-23 04:32N 38°54' E 009°32'1212.1
2014-Oct-23 03:33N 39°01' E 009°19'1212.2
2014-Oct-23 02:33N 39°08' E 009°06'6 5.5
2014-Oct-23 01:32N 39°13' E 009°04'0 0.0
2014-Oct-23 00:32N 39°13' E 009°04'0 0.0
2014-Oct-22 23:32N 39°13' E 009°04'0 0.0
2014-Oct-22 22:32N 39°13' E 009°04'0 0.0
2014-Oct-22 21:32N 39°13' E 009°04'0 0.0
2014-Oct-22 20:32N 39°13' E 009°04'0 0.0
2014-Oct-22 19:32N 39°13' E 009°04'0 0.0
2014-Oct-22 18:32N 39°13' E 009°04'0 0.0
2014-Oct-22 17:32N 39°13' E 009°04'0 0.0
2014-Oct-22 16:32N 39°13' E 009°04'0 0.0
2014-Oct-22 15:32N 39°13' E 009°04'0 0.0
2014-Oct-22 14:32N 39°13' E 009°04'0 0.0
2014-Oct-22 13:32N 39°13' E 009°04'0 0.0
2014-Oct-22 12:32N 39°13' E 009°04'0 0.0
2014-Oct-22 11:32N 39°13' E 009°04'0 0.0
2014-Oct-22 10:32N 39°13' E 009°04'0 0.0
2014-Oct-22 09:32N 39°13' E 009°04'0 0.0
2014-Oct-22 08:29N 39°13' E 009°04'0 0.0
2014-Oct-22 07:32N 39°13' E 009°04'0 0.0
2014-Oct-22 06:33N 39°13' E 009°04'1 1.0
2014-Oct-22 05:33N 39°12' E 009°05'4 4.2
2014-Oct-22 04:33N 39°08' E 009°06'5 5.2
2014-Oct-22 03:33N 39°03' E 009°08'1110.6
2014-Oct-22 02:33N 38°53' E 009°06'2 2.0
2014-Oct-22 01:32N 38°54' E 009°03'2 1.7
2014-Oct-22 00:33N 38°54' E 009°01'5 5.4
2014-Oct-21 23:32N 38°50' E 008°57'1212.2
2014-Oct-21 22:32N 38°46' E 008°42'1612.5
2014-Oct-21 21:15N 38°42' E 008°22'1115.1
2014-Oct-21 20:33N 38°39' E 008°09'12515.1
2014-Oct-21 12:18N 38°06' E 005°36'2814.6
2014-Oct-21 10:22N 37°59' E 005°01'1515.1
2014-Oct-21 09:24N 37°54' E 004°44'3015.2
2014-Oct-21 07:25N 37°46' E 004°07'4714.5
2014-Oct-21 04:10N 37°33' E 003°09'915.1
2014-Oct-21 03:32N 37°31' E 002°58'1515.2
2014-Oct-21 02:32N 37°27' E 002°39'1515.3
2014-Oct-21 01:33N 37°23' E 002°21'1515.3
2014-Oct-21 00:33N 37°19' E 002°03'1615.4
2014-Oct-20 23:32N 37°14' E 001°44'1515.3
2014-Oct-20 22:33N 37°11' E 001°26'1514.9
2014-Oct-20 21:33N 37°07' E 001°07'2914.6
2014-Oct-20 19:33N 36°59' E 000°32'1414.4
2014-Oct-20 18:33N 36°55' E 000°15'1414.5
2014-Oct-20 17:33N 36°51' W 000°02'1414.1
2014-Oct-20 16:33N 36°47' W 000°19'1414.3
2014-Oct-20 15:33N 36°43' W 000°37'1414.1
2014-Oct-20 14:33N 36°39' W 000°54'2877190.8
2014-Oct-19 23:29S 11°06' W 005°15'28332803.7
2014-Oct-19 22:28N 36°06' W 005°24'0 0.1
2014-Oct-19 21:22N 36°06' W 005°24'0 0.1
2014-Oct-19 20:31N 36°06' W 005°24'0 0.0
2014-Oct-19 19:31N 36°06' W 005°24'0 0.0
2014-Oct-19 18:31N 36°06' W 005°24'0 0.1
2014-Oct-19 17:19N 36°06' W 005°24'0 0.1
2014-Oct-19 16:33N 36°06' W 005°24'6 5.7
2014-Oct-19 15:33N 36°00' W 005°23'12 0.6
2014-Oct-18 19:29N 35°53' W 005°34'23 9.8
2014-Oct-18 17:10N 35°51' W 006°02'2514.1
2014-Oct-18 15:25N 35°30' W 006°19'50 1.0
2014-Oct-16 14:34N 35°59' W 005°29'1010.3
2014-Oct-16 13:33N 36°02' W 005°16'  
Track history (hours):
 
Tides and Currents Weather Stations Pressure Air Temp Water Temp Dewpoint Dewpoint Depression Visibility Wind Speed Wind Dir Waves Ship Positions

Bernard A

Last reported at 2014-Oct-23 21:13 UTC. Time now 2014-Oct-24 18:51 UTC.
Position N 36°58' E 013°33'.

Length 184 m; draft 8.1 m.

Type: Ship (hazmat cat A). MMSI: 271040008.

Date/timePositionNaut miles runAvg speedWind from/ knotsBaromVisibWave heightAir tempDewpointWater temp
2014-Oct-23 21:13N 36°58' E 013°33'22313.4
2014-Oct-23 04:32N 38°54' E 009°32'1212.1
2014-Oct-23 03:33N 39°01' E 009°19'1212.2
2014-Oct-23 02:33N 39°08' E 009°06'6 5.5
2014-Oct-23 01:32N 39°13' E 009°04'0 0.0
2014-Oct-23 00:32N 39°13' E 009°04'0 0.0
2014-Oct-22 23:32N 39°13' E 009°04'0 0.0
2014-Oct-22 22:32N 39°13' E 009°04'0 0.0
2014-Oct-22 21:32N 39°13' E 009°04'0 0.0
2014-Oct-22 20:32N 39°13' E 009°04'0 0.0
2014-Oct-22 19:32N 39°13' E 009°04'0 0.0
2014-Oct-22 18:32N 39°13' E 009°04'0 0.0
2014-Oct-22 17:32N 39°13' E 009°04'0 0.0
2014-Oct-22 16:32N 39°13' E 009°04'0 0.0
2014-Oct-22 15:32N 39°13' E 009°04'0 0.0
2014-Oct-22 14:32N 39°13' E 009°04'0 0.0
2014-Oct-22 13:32N 39°13' E 009°04'0 0.0
2014-Oct-22 12:32N 39°13' E 009°04'0 0.0
2014-Oct-22 11:32N 39°13' E 009°04'0 0.0
2014-Oct-22 10:32N 39°13' E 009°04'0 0.0
2014-Oct-22 09:32N 39°13' E 009°04'0 0.0
2014-Oct-22 08:29N 39°13' E 009°04'0 0.0
2014-Oct-22 07:32N 39°13' E 009°04'0 0.0
2014-Oct-22 06:33N 39°13' E 009°04'1 1.0
2014-Oct-22 05:33N 39°12' E 009°05'4 4.2
2014-Oct-22 04:33N 39°08' E 009°06'5 5.2
2014-Oct-22 03:33N 39°03' E 009°08'1110.6
2014-Oct-22 02:33N 38°53' E 009°06'2 2.0
2014-Oct-22 01:32N 38°54' E 009°03'2 1.7
2014-Oct-22 00:33N 38°54' E 009°01'5 5.4
2014-Oct-21 23:32N 38°50' E 008°57'1212.2
2014-Oct-21 22:32N 38°46' E 008°42'1612.5
2014-Oct-21 21:15N 38°42' E 008°22'1115.1
2014-Oct-21 20:33N 38°39' E 008°09'12515.1
2014-Oct-21 12:18N 38°06' E 005°36'2814.6
2014-Oct-21 10:22N 37°59' E 005°01'1515.1
2014-Oct-21 09:24N 37°54' E 004°44'3015.2
2014-Oct-21 07:25N 37°46' E 004°07'4714.5
2014-Oct-21 04:10N 37°33' E 003°09'915.1
2014-Oct-21 03:32N 37°31' E 002°58'1515.2
2014-Oct-21 02:32N 37°27' E 002°39'1515.3
2014-Oct-21 01:33N 37°23' E 002°21'1515.3
2014-Oct-21 00:33N 37°19' E 002°03'1615.4
2014-Oct-20 23:32N 37°14' E 001°44'1515.3
2014-Oct-20 22:33N 37°11' E 001°26'1514.9
2014-Oct-20 21:33N 37°07' E 001°07'2914.6
2014-Oct-20 19:33N 36°59' E 000°32'1414.4
2014-Oct-20 18:33N 36°55' E 000°15'1414.5
2014-Oct-20 17:33N 36°51' W 000°02'1414.1
2014-Oct-20 16:33N 36°47' W 000°19'1414.3
2014-Oct-20 15:33N 36°43' W 000°37'1414.1
2014-Oct-20 14:33N 36°39' W 000°54'2877190.8
2014-Oct-19 23:29S 11°06' W 005°15'28332803.7
2014-Oct-19 22:28N 36°06' W 005°24'0 0.1
2014-Oct-19 21:22N 36°06' W 005°24'0 0.1
2014-Oct-19 20:31N 36°06' W 005°24'0 0.0
2014-Oct-19 19:31N 36°06' W 005°24'0 0.0
2014-Oct-19 18:31N 36°06' W 005°24'0 0.1
2014-Oct-19 17:19N 36°06' W 005°24'0 0.1
2014-Oct-19 16:33N 36°06' W 005°24'6 5.7
2014-Oct-19 15:33N 36°00' W 005°23'12 0.6
2014-Oct-18 19:29N 35°53' W 005°34'23 9.8
2014-Oct-18 17:10N 35°51' W 006°02'2514.1
2014-Oct-18 15:25N 35°30' W 006°19'50 1.0
2014-Oct-16 14:34N 35°59' W 005°29'1010.3
2014-Oct-16 13:33N 36°02' W 005°16'  

Dump ship's entire track history